Location: Alafon
(8.4500°N, 4.2333°E)
Time: 01:37:01
(UTC+00:00)

Meteor 1-24 Rocket - Pass Details

Date: 05 July 2020
Orbit: 790 x 927 km, 81.3° (Epoch: 06 August)

Event Time Altitude Azimuth Distance (km) Brightness Sun altitude
Rises 18:32:53 0° 174° (S) 3,379 6.5 -7.0°
Reaches altitude 10° 18:35:19 10° 168° (SSE) 2,465 5.8 -7.5°
Maximum altitude 18:40:43 50° 94° (E) 1,091 3.9 -8.7°
Drops below altitude 10° 18:46:18 10° 20° (NNE) 2,551 6.3 -10.0°
Sets 18:48:52 0° 15° (NNE) 3,509 7.1 -10.6°
